Location: *
(60.1759°S, 155.0663°W)
Time: 03:57:30
(UTC+00:00)

SAR-Lupe-4 - Pass Details

Date: 17 September 2019
Orbit: 482 x 484 km, 98.2° (Epoch: 25 August)

Event Time Altitude Azimuth Distance (km) Brightness Sun altitude
Rises 13:54:25 0° 164° (SSE) 2,603 8.0 -18.6°
Reaches altitude 10° 13:56:31 10° 166° (SSE) 1,714 6.9 -18.4°
Maximum altitude 14:00:11 70° 248° (WSW) 535 3.5 -18.0°
Enters shadow 14:01:09 46° 316° (NW) 681 3.8 -17.9°
